Content
SEND FEEDBACK

Daily
Averages
Monthly
Summary
Australia

KOORAINGHAT, NEW SOUTH WALES


Home > Oceania > Australia > New South Wales
Elevation: 16 feet     Latitude: 31 54S     Longitude: 152 28E

WEATHER
 
SELECT A DAY
Number of Records: 130,927;   Date Range: 2/21/03 - 11/21/14
 
SHARE

PRINT THIS DATA

[ ← Previous Day ]
WEATHER ALMANAC - FEBRUARY 13, 2013
[ Next Day → ]
[ °C ]   °F
Weather ElementAverageHighLow
Temperature70.8 °F77 °F (12:00 pm)66.2 °F (4:00 am)
Dewpoint60.1 °F64.4 °F (10:00 pm)53.6 °F (2:00 pm)
Humidity68.5 %94 % (11:00 pm)39 % (3:00 pm)
Barometer30.15 in30.19 in (12:00 pm)30.12 in (1:00 am)
Wind Speed8.5 mph17.3 mph (2:00 pm)
Weather ElementAverage
Wind DirectionS (180.6 °)

Weather ElementTotal
Precipitation---
Cooling Degree Days6.6 (Base 65)
Growing Degree Days21.6 (Base 50)
Averaged from 31 records on February 13, 2013
WEATHER CONDITIONS BREAKOUT
WIND DIRECTION BREAKOUT
WEATHER BY HOUR - FEBRUARY 13, 2013
[ °C ]   °F
Local TimeTemperatureDewpointHumidityBarometerVisibilityWind DirectionWind SpeedGust SpeedPrecipitationEventsConditions
12:00 AM69.8 °F62.6 °F78 %30.15 inSouth (190°)6.9 mphOvercast
1:00 AM69.8 °F62.6 °F78 %30.12 inSW (220°)5.8 mphOvercast
2:00 AM68.0 °F62.6 °F83 %30.12 inSW (230°)6.9 mphOvercast
3:00 AM68.0 °F61.0 °F73 %30.12 inWest (260°)6.9 mphOvercast
3:00 AM68.0 °F60.8 °F78 %30.12 inWest (260°)6.9 mphOvercast
4:00 AM66.2 °F60.8 °F83 %30.12 inWSW (250°)5.8 mphMostly Cloudy
5:00 AM66.2 °F60.8 °F83 %30.12 inWest (260°)5.8 mphOvercast
6:00 AM66.2 °F60.8 °F83 %30.12 inWest (260°)5.8 mphOvercast
6:00 AM67.0 °F61.0 °F75 %30.13 inWest (260°)5.8 mph
7:00 AM66.2 °F60.8 °F83 %30.12 inSW (230°)5.8 mphOvercast
8:00 AM69.8 °F60.8 °F73 %30.15 inWest (280°)4.6 mphOvercast
9:00 AM72.0 °F59.0 °F54 %30.18 inSSW (210°)9.2 mphOvercast
9:00 AM71.6 °F59.0 °F64 %30.18 inSSW (210°)9.2 mphOvercast
10:00 AM73.4 °F60.8 °F65 %30.18 inSSW (200°)8.1 mphOvercast
11:00 AM73.4 °F59.0 °F61 %30.18 inSSE (150°)9.2 mphOvercast
12:00 PM77.0 °F57.2 °F50 %30.18 inSSE (150°)13.8 mphMostly Cloudy
12:00 PM76.0 °F57.0 °F41 %30.19 inSSE (160°)13.8 mphOvercast
1:00 PM77.0 °F55.4 °F47 %30.15 inSE (140°)13.8 mphOvercast
2:00 PM77.0 °F53.6 °F44 %30.15 inSSE (150°)17.3 mphMostly Cloudy
3:00 PM77.0 °F57.0 °F39 %30.16 inSSE (150°)15.0 mph
3:00 PM77.0 °F57.2 °F50 %30.15 inSSE (150°)15.0 mphScattered Clouds
4:00 PM75.2 °F55.4 °F50 %30.12 inSE (140°)12.7 mph
5:00 PM75.2 °F57.2 °F53 %30.12 inSSE (160°)11.5 mphScattered Clouds
6:00 PM71.6 °F60.8 °F69 %30.12 inESE (110°)15.0 mphScattered Clouds
6:00 PM71.0 °F61.0 °F63 %30.14 inESE (110°)15.0 mph
7:00 PM68.0 °F62.6 °F83 %30.15 inNNE (30°)2.3 mphMostly Cloudy
8:00 PM68.0 °F62.6 °F83 %30.15 inESE (110°)3.5 mphMostly Cloudy
9:00 PM68.0 °F62.0 °F74 %30.17 inEast (100°)2.3 mphOvercast
9:00 PM68.0 °F62.6 °F83 %30.15 inEast (100°)2.3 mphOvercast
10:00 PM68.0 °F64.4 °F88 %30.18 inNNE (30°)2.3 mphOvercast
11:00 PM66.2 °F64.4 °F94 %30.18 inNNW (340°)5.8 mphOvercast
Hourly data recorded from YTRE, located miles away from Koorainghat, New South Wales







STORIES FROM OUR PARTNERS